Погода в Рыбинске

Погода в Рыбинске : погода сейчас, прогноз погоды и архив. Всё, что Вы хотите узнать о погоде в Рыбинске!

Хотите узнать прогноз погоды в Рыбинске? Тогда Вам сюда: Погода в Рыбинске

Поиск расширенной информации на нашем сайте:

Другие новости

Новости СМИ2

Главная страница сайта

Новости сайта

03.07.2017

Напоминаем, что на нашем специализированном сайте Метеоцентр.Азия вы можете получить высокодетализированные автоматические прогнозы погоды по пунктам России, СНГ и мира в авиационном формате (включающие направление и скорость ветра, видимость, явления погоды, количество и форму облачности, нижнюю и верхнюю границу облачности).

Рекомендуем: Женский журнал http://clubkrasotki.ru

Погода в Рыбинске - сегодня

Время (UTC), дата Ветер
(°,м/с) 
Видим.   Явления Облачность Т
(°С)
Тd
(°С)
f(%) Тe
(°С)
Pmin
(гПа)
dP
(гПа)
Po
(мм)
O2
(г/м3)
Тmin Tmax R s Состояние
почвы
21 23.07.17 260 (З) 10 км    9/9 300 м 
[Sc]
+14.4 +10.3 76 +17  1010.5  -0.8  748  285           
00 24.07.17 260 (З) 10 км    10/10 300 м 
[Sc]
+14.3 +9.8 74 +16  1010  -0.5  748  285           
03 24.07.17 260 (З) 10 км    10/10 300 м 
[Sc]
+14.5 +9.9 74 +16  1009.6  -0.3  748  284  +14.3    0.0    мокрая 
06 24.07.17 280 (З) 15000 м    8/4 300 м средняя 
[Cu med, cong|Ac trans]
+17.1 +10.5 65 +20  1009.1  -0.4  748  282           
09 24.07.17 300 (СЗ) 17000 м    8/8 300 м 
[Sc]
+18.9 +11.2 61 +23  1009.3  0.3  748  280           
12 24.07.17 340 (С) 13000 м    9/9 300 м 
[Sc]
+17.8 +11.8 68 +23  1010  0.7  748  281           
15 24.07.17 320 (СЗ) 11000 м    10/10 2000 м 
[Ac und]
+17.3 +12 71 +23  1010.2  0.2  748  281    +19.6       
18 24.07.17 280 (З) 12000 м    6/6 2000 м средняя 
[Ac trans]
+17 +11 68 +21  1010  -0.3  748  282           
21 24.07.17 270 (З) 10 км    3/3 300 м 
[Cu med, cong]
+13.9 +11.1 83 +18  1009.9  -0.2  748  285           
00 25.07.17 240 (ЮЗ) 10 км    3/3 300 м 
[Cu med, cong]
+11.8 +10.5 92 +15  1010.1  0.1  748  287           
03 25.07.17 250 (З) 8000 м  дымка  4/3 300 м верхняя 
[Cu med, cong|Ci fib]
+13.4 +11.7 89 +19  1010.1  748  285  +11.4        мокрая 
06 25.07.17 330 (СЗ) 12000 м    8/6 300 м верхняя 
[Cu med, cong|Ci fib]
+18.4 +12.8 70 +24  1009.7  -0.1  748  280           
09 25.07.17 360 (С) 15000 м    6/3 600 м верхняя 
[Cu med, cong|Ci sp]
+20 +12.5 62 +25  1009.9  0.3  748  279           
12 25.07.17 350 (С) 16000 м    6/6 300 м 
[Cu med, cong]
+20.9 +13.3 62 +27  1009.7  -0.2  748  277           
15 25.07.17 330 (СЗ) 15000 м    4/4 600 м 
[Cu med, cong]
+22.3 +11.4 50 +25  1009.2  -0.4  748  276    +22.3       
18 25.07.17 тихо ()   15000 м    3/3 300 м 
[Sc]
+15.8 +12.9 83 +21  1009.4  -0.1  748  282           
21 25.07.17 тихо ()   10 км    8/8 300 м 
[Sc]
+14.1 +12.8 92 +19  1009.7  0.2  748  284           
00 26.07.17 180 (Ю) 10 км    8/8 300 м 
[Sc]
+15.5 +12.3 81 +21  1009.8  0.2  748  283           
03 26.07.17 130 (ЮВ) 17000 м    6/6 2000 м средняя 
[Ac trans]
+15.9 +12.6 81 +22  1009.5  -0.3  748  282  +13.1        мокрая 
06 26.07.17 110 (В) 15000 м    10/10 2000 м 
[Ac und]
+18.7 +14.2 75 +27  1008.9  -0.5  747  279           
09 26.07.17 100 (В) 13000 м    10/10 2000 м 
[As trans]
+21 +14.9 68 +30  1008.7  -0.1  747  277           
12 26.07.17 090 (В) 10 км  слаб. дождь  10/10 300 м 
[Frnb|Ns]
+21 +16.4 75 +32  1008.3  -0.4  747  276           
15 26.07.17 110 (В) 9000 м  слаб. дождь  10/10 300 м 
[Frnb|Ns]
+20.4 +16.4 78 +32  1007.3  -1  746  276    +21.1  0.0     
18 26.07.17 120 (ЮВ) 8000 м  слаб. морось{дождь}  10/10 300 м 
[St]
+18.8 +16.2 85 +31  1005.6  -1.7  745  277           
21 26.07.17 130 (ЮВ) 10 км  в посл. час дождь{морось}  10/10 300 м 
[Sc]
+18.7 +16.4 86 +31  1004.5  -1.2  744  277           
Время (UTC), дата Ветер
(°,м/с) 
Видим.   Явления Облачность Т
(°С)
Тd
(°С)
f(%) Тe
(°С)
Pmin
(гПа)
dP
(гПа)
Po
(мм)
O2
(г/м3)
Тmin Tmax R s Состояние
почвы

Для получения пояснительной информации подведите курсор к названию столбца.

ПОГОДА в Рыбинске - архив

Всё, что Вы хотите узнать о погоде в Рыбинске - удобно и подробно!

Выберите нужную дату (начиная с 1 января 2015* года) и нажмите кнопку "Найти".
Будут отображены архивные сводки погоды по пункту Рыбинск, начиная с указанной даты.


Отображать данные в формате CSV (для использования в таблицах Excel)


Внимание! Наш архив погоды предназначен исключительно для личного некоммерческого использования в познавательных целях. Если Вам необходимы официальные справки о состоянии погоды (для производственных, юридических, коммерческих и т.п. целей), обращайтесь в органы Росгидромета.

*Примечание: данная дата относится к архиву по метеостанциям СССР (Россия, СНГ, Балтия).
Архив по метеостанциям Зарубежной Европы и Азии (кроме Китая) хранится 10 дней, по другим регионам земного шара (Китай, Африка, Америка, Австралия, Океания) - 1 день.

Рыбинск - район местоположения метеостанции


Название, широта, долгота, высота метеостанции:
Рыбинск 58.1°ш. 38.7°д. 105 м над ур. моря [Российская Федерация]

Дополнительная информация

В oтличие oт бoльшинства пoгoдных сайтoв мы публикуем пoдрoбную метеoинфoрмацию в детальнoм прoфессиoнальнoм фoрмате.

Характеристики температуры и влажнoсти вoздуха измеряются на высoте 2 м в тени вдали oт зданий и деревьев.
Скoрoсть ветра измеряется на высoте 10 м (на урoвне рoста челoвека скoрoсть ветра ниже в 1.5-2 раза). Если метеoстанция нахoдится в гoрoде или в лесу, тo скoрoсть ветра занижена на 2-4 м/с пo сравнению с oткрытым местoм. Скoрoсть ветра над акватoриями крупных рек и oзёр, а также на вершинах хoлмoв на 2-5 м/с выше, чем в oбычных услoвиях.
Атмoсфернoе давление в разных тoчках местнoсти мoжет значительнo oтличаться oт давления на метеoстанции, в зависимoсти oт услoвий рельефа (при пoдъёме на 10 м давление пoнижается примернo на 1 мм рт.ст.).